Location: Sungai Anya
(2.6167°N, 114.0500°E)
Time: 20:01:12
(UTC+00:00)

IRAS Rocket - Pass Details

Date: 19 October 2021
Orbit: 847 x 878 km, 100.1° (Epoch: 07 December)

Event Time Altitude Azimuth Distance (km) Brightness Sun altitude
Rises 10:26:21 0° 14° (NNE) 3,410 7.1 -4.8°
Reaches altitude 10° 10:28:43 10° 15° (NNE) 2,472 6.4 -5.4°
Maximum altitude 10:34:12 87° 103° (ESE) 853 4.2 -6.7°
Drops below altitude 10° 10:39:40 10° 193° (SSW) 2,468 6.9 -8.1°
Sets 10:42:02 0° 193° (SSW) 3,404 7.7 -8.6°
